Iguazu, Argentina

3:06 AM America on November 22, 2017 (GMT +0000)
Mayor D Carlos Eduardo Krause

Weather History for SARI - December, 2012

Change the Weather History Date:

Saturday, December 8, 2012

  Actual Average Record
Temperature  
Mean Temperature 82 °F -  
Max Temperature 93 °F 85 °F 98 °F (2008)
Min Temperature 71 °F 66 °F 57 °F (2005)
Cooling Degree Days 17    
Growing Degree Days 32 (Base 50)    
Moisture  
Dew Point 73 °F    
Average Humidity 82    
Maximum Humidity 100    
Minimum Humidity 56    
Precipitation  
Precipitation 1.02 in - - ()
Sea Level Pressure  
Sea Level Pressure 29.90 in    
Wind  
Wind Speed 5 mph ()    
Max Wind Speed 23 mph    
Max Gust Speed -    
Visibility 5.7 miles    
Events Rain , Thunderstorm    
Averages and records for this station are not official NWS values.
T = Trace of Precipitation, MM = Missing Value Source: Averaged Metar Reports

Daily Weather History Graph

Daily Weather History Graph

Search for Another Location

Airport or City:

Trip Planner

Search our weather history database for the weather conditions in past years. The results will help you decide how hot, cold, wet, or windy it might be!

Date:

Astronomy

Dec. 08, 2012 Rise Set
Actual Time 5:39 AM -03 7:21 PM -03
Civil Twilight 5:13 AM -03 7:46 PM -03
Nautical Twilight 4:42 AM -03 8:18 PM -03
Astronomical Twilight 4:09 AM -03 8:50 PM -03
Moon 1:32 AM -03 (12/8) 2:25 PM -03 (12/8)
Length of Visible Light 14h 33m
Length of Day
13h 41m
Waning Crescent, 29% of the Moon is Illuminated
Dec 8
Waning Crescent
Dec 13
New
Dec 20
First Quarter
Dec 28
Full
Jan 5
Last Quarter

Hourly Weather History & Observations

Time (-03) Temp. Heat Index Dew Point Humidity Pressure Visibility Wind Dir Wind Speed Gust Speed Precip Events Conditions
12:00 AM 73.4 °F - 73.4 °F 100% 29.89 in 6.2 mi South 4.6 mph - N/A   Mostly Cloudy
1:00 AM 73.4 °F - 73.4 °F 100% 29.86 in 6.2 mi NE 5.8 mph - N/A   Scattered Clouds
2:00 AM 73.4 °F - 71.6 °F 94% 29.86 in 6.2 mi NE 4.6 mph - N/A   Scattered Clouds
3:00 AM 71.6 °F - 71.6 °F 100% 29.86 in 6.2 mi South 8.1 mph - N/A   Scattered Clouds
4:00 AM 71.6 °F - 71.6 °F 100% 29.86 in 6.2 mi South 5.8 mph - N/A   Scattered Clouds
5:00 AM 71.6 °F - 71.6 °F 100% 29.89 in 6.2 mi South 4.6 mph - N/A   Scattered Clouds
6:00 AM 71.6 °F - 71.6 °F 100% 29.89 in 6.2 mi South 3.5 mph - N/A   Scattered Clouds
7:00 AM 73.4 °F - 71.6 °F 94% 29.92 in - South 4.6 mph - N/A   Clear
8:00 AM 75.2 °F - 71.6 °F 89% 29.92 in - South 8.1 mph - N/A   Clear
9:00 AM 80 °F - 72 °F 71% 29.87 in 12 mi Calm Calm - -   Clear
9:00 AM 78.8 °F - 71.6 °F 78% 29.95 in - Calm Calm - N/A   Clear
10:00 AM 84.2 °F 92.3 °F 75.2 °F 74% 29.95 in - Calm Calm - N/A   Clear
11:00 AM 87.8 °F 99.7 °F 77.0 °F 70% 29.92 in 6.2 mi Calm Calm - N/A   Partly Cloudy
12:00 PM 89.6 °F 99.8 °F 75.2 °F 62% 29.92 in 6.2 mi North 5.8 mph - N/A   Scattered Clouds
1:00 PM 93.2 °F 107.2 °F 77.0 °F 59% 29.89 in 6.2 mi West 5.8 mph - N/A   Scattered Clouds
2:00 PM 93.2 °F 105.0 °F 75.2 °F 56% 29.86 in 6.2 mi West 9.2 mph - N/A   Scattered Clouds
3:00 PM 93.2 °F 105.0 °F 75.2 °F 56% 29.86 in 6.2 mi West 13.8 mph - N/A   Scattered Clouds
4:00 PM 93.2 °F 105.0 °F 75.2 °F 56% 29.83 in 6.2 mi SW 11.5 mph - N/A   Scattered Clouds
5:00 PM 93.2 °F 105.0 °F 75.2 °F 56% 29.86 in 6.2 mi North 8.1 mph - N/A   Scattered Clouds
6:00 PM 82.4 °F 87.2 °F 71.6 °F 70% 29.86 in 6.2 mi Calm Calm - N/A   Mostly Cloudy
7:00 PM 80.6 °F 84.6 °F 71.6 °F 74% 29.89 in 6.2 mi Calm Calm - N/A   Mostly Cloudy
8:00 PM 77.0 °F - 75.2 °F 94% 29.95 in 6.2 mi ENE 8.1 mph - N/A Thunderstorm Light Thunderstorm
9:00 PM 75 °F - - % 29.92 in 2 mi WNW 9.2 mph - - Rain , Thunderstorm Thunderstorms and Rain
9:00 PM 75.2 °F - 75.2 °F 100% 29.98 in 2.5 mi WNW 9.2 mph - N/A Rain , Thunderstorm Thunderstorms and Rain
10:00 PM 73.4 °F - 71.6 °F 94% 29.95 in 1.2 mi SSE 23.0 mph - N/A Rain , Thunderstorm Thunderstorms and Rain
11:00 PM 73.4 °F - 73.4 °F 100% 29.98 in 3.1 mi ENE 4.6 mph - N/A Rain , Thunderstorm Light Thunderstorms and Rain